GONETS M 20

导读 | 星芒AI

GONETS M 20 是一颗俄罗斯的低轨通信卫星,属于 Gonets-M 系列,由俄罗斯航天局(Roscosmos)运营。该卫星主要用于提供中低数据率的通信服务,支持消息传递、遥测和远程数据传输,适用于偏远地区和移动用户。GONETS M 20 于 2021 年发射,运行在近极地轨道,设计寿命约为 5 年。该系列卫星在俄罗斯的应急响应、交通管理和环境监测等领域发挥重要作用。

基本信息
目录编号:
47227
目录名称:
GONETS M 20
国际标识:
2020-091A
轨道中心:
EARTH
卫星名称:
GONETS M 20
卫星全名:
--
卫星状态:
在轨 (已飞行1797 天)
发射日期:
2020-12-03 UTC
国别 :
俄罗斯(独联体) (CIS)
星等 :
--
轨道信息
数据来源 国际轨道数据 AOE轨道数据
星历时间 2025-11-04T04:31:31+0800
6小时前
查看轨道信息
2025-11-02T10:00:00+0800
2天前
查看轨道信息
半长轴 7872.66km 7872.66km
偏心率 0.0019942 0.0019997
轨道倾角 82.502° 82.500°
近地点辐角 312.975° 316.769°
升交点赤经 82.504° 83.605°
平近点角 46.965° 39.135°
近地点 1478.825km 1478.782km
远地点 1510.225km 1510.268km
周期 115.862分钟 115.862分钟
每日圈数 12.428553 12.428553
详细信息
使用方式:
暂无
2D轨道图
3D轨道图
轨道高度分析图
轨道倾角分析图
轨道综合分析图
查看轨道综合分析图